| time (UTC) | temp F | wind direction | speed knots | gust knots | rain 1hr in | rain 24hr in | rain mn in | humidity % | barometer mb |
| 20260901125033 | 68 | 307 | 0.9 | 6.1 | 0.00 | 0.00 | 0.00 | 54 | 974.7 |
| 20260901124533 | 68 | 351 | 0.9 | 2.6 | 0.00 | 0.00 | 0.00 | 54 | 974.8 |
| 20260901124103 | 68 | 347 | 5.2 | 9.6 | 0.00 | 0.00 | 0.00 | 54 | 974.6 |
| 20260901123608 | 68 | 318 | 7.0 | 9.6 | 0.00 | 0.00 | 0.00 | 54 | 974.7 |
| 20260901123133 | 68 | 305 | 1.7 | 9.6 | 0.00 | 0.00 | 0.00 | 54 | 974.7 |
| 20260901122653 | 68 | 147 | 1.7 | 11.3 | 0.00 | 0.00 | 0.00 | 59 | 974.8 |
| 20260901122223 | 69 | 2 | 5.2 | 11.3 | 0.00 | 0.00 | 0.00 | 59 | 974.7 |
| 20260901121803 | 68 | 2 | 5.2 | 11.3 | 0.00 | 0.00 | 0.00 | 59 | 975.0 |
| 20260901121343 | 68 | 2 | 5.2 | 7.8 | 0.00 | 0.00 | 0.00 | 59 | 974.9 |
| 20260901120858 | 68 | 344 | 5.2 | 12.2 | 0.00 | 0.00 | 0.00 | 59 | 974.7 |
| 20260901120446 | 68 | 324 | 5.2 | 6.1 | 0.00 | 0.00 | 0.00 | 59 | 974.7 |
| 20260901120018 | 68 | 314 | 0.9 | 11.3 | 0.00 | 0.00 | 0.00 | 59 | 974.9 |
| 20260901115525 | 68 | 297 | 3.5 | 11.3 | 0.00 | 0.00 | 0.00 | 59 | 974.7 |
| 20260901115113 | 69 | 342 | 7.8 | 11.3 | 0.00 | 0.00 | 0.00 | 59 | 974.9 |
| 20260901114628 | 67 | 12 | 5.2 | 11.3 | 0.00 | 0.00 | 0.00 | 59 | 974.7 |
| 20260901114153 | 67 | 3 | 7.8 | 12.2 | 0.00 | 0.00 | 0.00 | 59 | 974.8 |
| 20260901113703 | 67 | 353 | 2.6 | 15.6 | 0.00 | 0.00 | 0.00 | 55 | 974.8 |
| 20260901113228 | 67 | 0 | 2.6 | 12.2 | 0.00 | 0.00 | 0.00 | 55 | 974.8 |
| 20260901112803 | 67 | 358 | 8.7 | 9.6 | 0.00 | 0.00 | 0.00 | 55 | 974.7 |
| 20260901112348 | 67 | 291 | 7.0 | 12.2 | 0.00 | 0.00 | 0.00 | 55 | 974.9 |
| 20260901111920 | 67 | 302 | 7.0 | 12.2 | 0.00 | 0.00 | 0.00 | 55 | 974.8 |
| 20260901111501 | 66 | 302 | 7.0 | 21.7 | 0.00 | 0.00 | 0.00 | 55 | 974.8 |
| 20260901111055 | 66 | 288 | 7.0 | 15.6 | 0.00 | 0.00 | 0.00 | 58 | 974.8 |
| 20260901110626 | 66 | 354 | 5.2 | 12.2 | 0.00 | 0.00 | 0.00 | 58 | 974.8 |
| 20260901110158 | 66 | 354 | 7.8 | 7.8 | 0.00 | 0.00 | 0.00 | 58 | 974.9 |
| 20260901105708 | 66 | 348 | 7.8 | 12.2 | 0.00 | 0.00 | 0.00 | 58 | 974.9 |
| 20260901105238 | 67 | 21 | 7.8 | 6.1 | 0.00 | 0.00 | 0.00 | 58 | 974.8 |
| 20260901104753 | 67 | 335 | 5.2 | 6.1 | 0.00 | 0.00 | 0.00 | 59 | 975.0 |
| 20260901104327 | 65 | 345 | 5.2 | 11.3 | 0.00 | 0.00 | 0.00 | 59 | 974.8 |
| 20260901103903 | 65 | 10 | 5.2 | 9.6 | 0.00 | 0.00 | 0.00 | 59 | 974.8 |
| 20260901103422 | 65 | 196 | 2.6 | 13.9 | 0.00 | 0.00 | 0.00 | 59 | 975.1 |
| 20260901102935 | 66 | 255 | 2.6 | 13.9 | 0.00 | 0.00 | 0.00 | 59 | 974.8 |
| 20260901102508 | 66 | 291 | 13.9 | 13.9 | 0.00 | 0.00 | 0.00 | 59 | 975.0 |
| 20260901102048 | 67 | 291 | 4.3 | 13.9 | 0.00 | 0.00 | 0.00 | 59 | 974.8 |
| 20260901101618 | 67 | 132 | 4.3 | 12.2 | 0.00 | 0.00 | 0.00 | 62 | 974.7 |
| 20260901101143 | 65 | 312 | 3.5 | 12.2 | 0.00 | 0.00 | 0.00 | 62 | 974.8 |
| 20260901100713 | 65 | 275 | 1.7 | 12.2 | 0.00 | 0.00 | 0.00 | 62 | 975.1 |
| 20260901100258 | 65 | 351 | 1.7 | 9.6 | 0.00 | 0.00 | 0.00 | 63 | 975.1 |
| 20260901095828 | 64 | 302 | 1.7 | 13.9 | 0.00 | 0.00 | 0.00 | 63 | 974.9 |
| 20260901095403 | 63 | 290 | 5.2 | 13.9 | 0.00 | 0.00 | 0.00 | 63 | 974.7 |
| 20260901094943 | 64 | 245 | 4.3 | 13.9 | 0.00 | 0.00 | 0.00 | 63 | 974.8 |
| 20260901094513 | 64 | 322 | 0.9 | 12.2 | 0.00 | 0.00 | 0.00 | 63 | 975.1 |
| 20260901094025 | 64 | 297 | 10.4 | 9.6 | 0.00 | 0.00 | 0.00 | 63 | 975.1 |
| 20260901093538 | 63 | 297 | 3.5 | 7.8 | 0.00 | 0.00 | 0.00 | 66 | 974.9 |
| 20260901093053 | 63 | 322 | 7.8 | 11.3 | 0.00 | 0.00 | 0.00 | 66 | 974.9 |
| 20260901092614 | 63 | 243 | 7.8 | 15.6 | 0.00 | 0.00 | 0.00 | 67 | 975.0 |
| 20260901092148 | 65 | 348 | 5.2 | 11.3 | 0.00 | 0.00 | 0.00 | 67 | 975.0 |
| 20260901091735 | 65 | 346 | 5.2 | 0.0 | 0.00 | 0.00 | 0.00 | 67 | 975.2 |
| 20260901091248 | 62 | 278 | 0.9 | 12.2 | 0.00 | 0.00 | 0.00 | 67 | 974.9 |
| 20260901090803 | 62 | 166 | 5.2 | 12.2 | 0.00 | 0.00 | 0.00 | 66 | 975.1 |
| 20260901090343 | 62 | 329 | 4.3 | 12.2 | 0.00 | 0.00 | 0.00 | 70 | 975.0 |
| 20260901085903 | 62 | 329 | 3.5 | 4.3 | 0.00 | 0.00 | 0.00 | 70 | 975.0 |
| 20260901085423 | 62 | 351 | 1.7 | 4.3 | 0.00 | 0.00 | 0.00 | 70 | 975.1 |
| 20260901084953 | 63 | 301 | 4.3 | 4.3 | 0.00 | 0.00 | 0.00 | 70 | 975.1 |
| 20260901084513 | 63 | 301 | 5.2 | 4.3 | 0.00 | 0.00 | 0.00 | 71 | 974.9 |
| 20260901084015 | 62 | 301 | 5.2 | 12.2 | 0.00 | 0.00 | 0.00 | 77 | 974.9 |
| 20260901083548 | 62 | 275 | 5.2 | 9.6 | 0.00 | 0.00 | 0.00 | 77 | 974.9 |
| 20260901083148 | 62 | 314 | 10.4 | 9.6 | 0.00 | 0.00 | 0.00 | 77 | 974.9 |
| 20260901082728 | 63 | 107 | 1.7 | 9.6 | 0.00 | 0.00 | 0.00 | 77 | 975.1 |
| 20260901082253 | 62 | 321 | 3.5 | 11.3 | 0.00 | 0.00 | 0.00 | 77 | 974.7 |
| 20260901081828 | 62 | 307 | 3.5 | 7.8 | 0.00 | 0.00 | 0.00 | 77 | 974.7 |
| 20260901081405 | 62 | 307 | 6.1 | 11.3 | 0.00 | 0.00 | 0.00 | 77 | 975.0 |
| 20260901080945 | 62 | 290 | 0.9 | 7.8 | 0.00 | 0.00 | 0.00 | 77 | 975.0 |
| 20260901080458 | 61 | 295 | 6.1 | 6.1 | 0.00 | 0.00 | 0.00 | 77 | 974.9 |
| 20260901080043 | 61 | 330 | 6.1 | 7.8 | 0.00 | 0.00 | 0.00 | 77 | 974.6 |
| 20260901075623 | 61 | 330 | 2.6 | 9.6 | 0.00 | 0.00 | 0.00 | 77 | 974.9 |
| 20260901075143 | 62 | 330 | 2.6 | 9.6 | 0.00 | 0.00 | 0.00 | 77 | 974.8 |
| 20260901074728 | 62 | 330 | 4.3 | 9.6 | 0.00 | 0.00 | 0.00 | 77 | 974.6 |
| 20260901074258 | 62 | 330 | 3.5 | 7.8 | 0.00 | 0.00 | 0.00 | 77 | 974.7 |
| 20260901073858 | 62 | 330 | 0.9 | 7.8 | 0.00 | 0.00 | 0.00 | 78 | 974.6 |
| 20260901073423 | 62 | 313 | 0.9 | 7.8 | 0.00 | 0.00 | 0.00 | 78 | 974.6 |
| 20260901073006 | 60 | 313 | 7.8 | 11.3 | 0.00 | 0.00 | 0.00 | 78 | 974.6 |
| 20260901072544 | 60 | 313 | 0.0 | 7.8 | 0.00 | 0.00 | 0.00 | 86 | 974.6 |
| 20260901072108 | 60 | 329 | 0.0 | 13.9 | 0.00 | 0.00 | 0.00 | 86 | 974.5 |
| 20260901071622 | 60 | 301 | 5.2 | 9.6 | 0.00 | 0.00 | 0.00 | 86 | 974.5 |
| 20260901071203 | 60 | 273 | 1.7 | 7.8 | 0.00 | 0.00 | 0.00 | 86 | 974.6 |
| 20260901070733 | 60 | 342 | 1.7 | 6.1 | 0.00 | 0.00 | 0.00 | 86 | 974.6 |
| 20260901070253 | 60 | 295 | 0.0 | 4.3 | 0.00 | 0.00 | 0.00 | 86 | 974.4 |
| 20260901065833 | 60 | 305 | 0.0 | 6.1 | 0.00 | 0.00 | 0.00 | 86 | 974.4 |
| 20260901065353 | 59 | 317 | 1.7 | 2.6 | 0.00 | 0.00 | 0.00 | 86 | 974.4 |
| 20260901064935 | 59 | 310 | 1.7 | 7.8 | 0.00 | 0.00 | 0.00 | 86 | 974.5 |
| 20260901064458 | 59 | 306 | 7.0 | 7.8 | 0.00 | 0.00 | 0.00 | 86 | 974.4 |
| 20260901064015 | 57 | 279 | 3.5 | 7.8 | 0.00 | 0.00 | 0.00 | 86 | 974.4 |
| 20260901063558 | 57 | 279 | 1.7 | 7.8 | 0.00 | 0.00 | 0.00 | 86 | 974.3 |
| 20260901063143 | 57 | 279 | 2.6 | 7.8 | 0.00 | 0.00 | 0.00 | 86 | 974.4 |
| 20260901062658 | 57 | 342 | 0.9 | 2.6 | 0.00 | 0.00 | 0.00 | 86 | 974.4 |
| 20260901062228 | 57 | 149 | 0.9 | 2.6 | 0.00 | 0.00 | 0.00 | 86 | 974.3 |
| 20260901061808 | 57 | 149 | 0.9 | 2.6 | 0.00 | 0.00 | 0.00 | 92 | 974.4 |
| 20260901061338 | 57 | 149 | 0.0 | 2.6 | 0.00 | 0.00 | 0.00 | 92 | 974.3 |
| 20260901060843 | 57 | 149 | 1.7 | 0.9 | 0.00 | 0.00 | 0.00 | 92 | 974.4 |
| 20260901060428 | 57 | 118 | 0.0 | 0.9 | 0.00 | 0.00 | 0.00 | 92 | 974.6 |
| 20260901055953 | 57 | 118 | 0.0 | 0.0 | 0.00 | 0.00 | 0.00 | 92 | 974.4 |
| 20260901055458 | 57 | 118 | 0.9 | 0.9 | 0.00 | 0.00 | 0.00 | 92 | 974.4 |
| 20260901055033 | 57 | 210 | 1.7 | 0.9 | 0.00 | 0.00 | 0.00 | 92 | 974.4 |
| 20260901054613 | 57 | 274 | 0.0 | 0.9 | 0.00 | 0.00 | 0.00 | 92 | 974.4 |
| 20260901054153 | 57 | 274 | 0.0 | 0.0 | 0.00 | 0.00 | 0.00 | 92 | 974.3 |
| 20260901053718 | 57 | 274 | 0.0 | 2.6 | 0.00 | 0.00 | 0.00 | 92 | 974.3 |
| 20260901053243 | 57 | 354 | 0.9 | 2.6 | 0.00 | 0.00 | 0.00 | 92 | 974.4 |
| 20260901052803 | 57 | 354 | 0.9 | 2.6 | 0.00 | 0.00 | 0.00 | 92 | 974.3 |
| 20260901052333 | 57 | 354 | 0.9 | 4.3 | 0.00 | 0.00 | 0.00 | 92 | 974.4 |
| 20260901051838 | 57 | 354 | 0.0 | 2.6 | 0.00 | 0.00 | 0.00 | 92 | 974.2 |
| 20260901051433 | 57 | 343 | 0.9 | 4.3 | 0.00 | 0.00 | 0.00 | 92 | 974.2 |
| 20260901051003 | 57 | 256 | 0.9 | 0.9 | 0.00 | 0.00 | 0.00 | 92 | 974.0 |
| 20260901050543 | 57 | 256 | 0.9 | 4.3 | 0.00 | 0.00 | 0.00 | 92 | 974.3 |
| 20260901050058 | 57 | 256 | 0.9 | 4.3 | 0.00 | 0.00 | 0.00 | 92 | 974.3 |
| 20260901045633 | 57 | 256 | 0.9 | 4.3 | 0.00 | 0.00 | 0.00 | 92 | 974.3 |
| 20260901045213 | 57 | 256 | 0.9 | 4.3 | 0.00 | 0.00 | 0.00 | 92 | 974.2 |
| 20260901044743 | 57 | 256 | 0.9 | 4.3 | 0.00 | 0.00 | 0.00 | 92 | 974.1 |
| 20260901044326 | 57 | 256 | 1.7 | 12.2 | 0.00 | 0.00 | 0.00 | 92 | 974.2 |
| 20260901043859 | 57 | 256 | 1.7 | 6.1 | 0.00 | 0.00 | 0.00 | 92 | 974.2 |
| 20260901043443 | 57 | 203 | 1.7 | 2.6 | 0.00 | 0.00 | 0.00 | 92 | 974.2 |
| 20260901043008 | 57 | 203 | 0.9 | 7.8 | 0.00 | 0.00 | 0.00 | 92 | 973.9 |
| 20260901042553 | 57 | 203 | 0.9 | 7.8 | 0.00 | 0.00 | 0.00 | 92 | 974.2 |
| 20260901042138 | 57 | 203 | 0.9 | 7.8 | 0.00 | 0.00 | 0.00 | 92 | 974.1 |
| 20260901041701 | 57 | 203 | 0.9 | 7.8 | 0.00 | 0.00 | 0.00 | 92 | 974.2 |
| 20260901041233 | 57 | 205 | 1.7 | 6.1 | 0.00 | 0.00 | 0.00 | 92 | 974.0 |
| 20260901040738 | 57 | 205 | 1.7 | 6.1 | 0.00 | 0.00 | 0.00 | 92 | 973.9 |
| 20260901040308 | 57 | 205 | 1.7 | 4.3 | 0.00 | 0.00 | 0.00 | 92 | 974.0 |
| 20260901035838 | 57 | 205 | 0.0 | 4.3 | 0.00 | 0.00 | 0.00 | 92 | 973.8 |
| 20260901035408 | 57 | 205 | 0.9 | 4.3 | 0.00 | 0.00 | 0.00 | 92 | 973.7 |
| 20260901034918 | 57 | 205 | 0.9 | 4.3 | 0.00 | 0.00 | 0.00 | 92 | 973.9 |
| 20260901034428 | 57 | 205 | 1.7 | 4.3 | 0.00 | 0.00 | 0.00 | 92 | 973.7 |
| 20260901033958 | 57 | 205 | 0.9 | 0.9 | 0.00 | 0.00 | 0.00 | 92 | 973.7 |
| 20260901033533 | 57 | 205 | 0.0 | 0.9 | 0.00 | 0.00 | 0.00 | 92 | 973.9 |
| 20260901033118 | 57 | 205 | 0.0 | 2.6 | 0.00 | 0.00 | 0.00 | 92 | 973.7 |
| 20260901032648 | 57 | 262 | 0.9 | 0.9 | 0.00 | 0.00 | 0.00 | 92 | 973.7 |
| 20260901032223 | 57 | 262 | 1.7 | 4.3 | 0.00 | 0.00 | 0.00 | 92 | 973.6 |
| 20260901031813 | 57 | 262 | 1.7 | 0.9 | 0.00 | 0.00 | 0.00 | 92 | 973.6 |
| 20260901031353 | 57 | 263 | 1.7 | 0.9 | 0.00 | 0.00 | 0.00 | 92 | 973.6 |
| 20260901030923 | 57 | 263 | 1.7 | 0.9 | 0.00 | 0.00 | 0.00 | 92 | 973.5 |
| 20260901030453 | 58 | 279 | 0.0 | 2.6 | 0.00 | 0.00 | 0.00 | 92 | 973.6 |
| 20260901030028 | 58 | 279 | 1.7 | 0.9 | 0.00 | 0.00 | 0.00 | 92 | 973.6 |
| 20260901025539 | 58 | 279 | 1.7 | 2.6 | 0.00 | 0.00 | 0.00 | 92 | 973.5 |
| 20260901025108 | 58 | 279 | 1.7 | 2.6 | 0.00 | 0.00 | 0.00 | 92 | 973.4 |
| 20260901024633 | 58 | 279 | 1.7 | 2.6 | 0.00 | 0.00 | 0.00 | 92 | 973.7 |
| 20260901024213 | 58 | 279 | 1.7 | 2.6 | 0.00 | 0.00 | 0.00 | 92 | 973.3 |
| 20260901023758 | 58 | 262 | 0.0 | 0.9 | 0.00 | 0.00 | 0.00 | 92 | 973.4 |
| 20260901023333 | 58 | 262 | 0.0 | 0.9 | 0.00 | 0.00 | 0.00 | 92 | 973.8 |
| 20260901022858 | 58 | 262 | 0.0 | 0.9 | 0.00 | 0.00 | 0.00 | 92 | 973.5 |
| 20260901022423 | 58 | 262 | 0.0 | 6.1 | 0.00 | 0.00 | 0.00 | 92 | 973.5 |
| 20260901021938 | 57 | 262 | 0.9 | 6.1 | 0.00 | 0.00 | 0.00 | 92 | 973.3 |
| 20260901021505 | 58 | 262 | 0.9 | 2.6 | 0.00 | 0.00 | 0.00 | 88 | 973.2 |
| 20260901021028 | 58 | 262 | 0.9 | 2.6 | 0.00 | 0.00 | 0.00 | 88 | 973.4 |
| 20260901020618 | 58 | 262 | 1.7 | 2.6 | 0.00 | 0.00 | 0.00 | 88 | 973.4 |
| 20260901020128 | 58 | 262 | 1.7 | 2.6 | 0.00 | 0.00 | 0.00 | 88 | 973.3 |
| 20260901015700 | 58 | 262 | 1.7 | 2.6 | 0.00 | 0.00 | 0.00 | 88 | 973.3 |
| 20260901015223 | 58 | 262 | 3.5 | 2.6 | 0.00 | 0.00 | 0.00 | 88 | 973.1 |
| 20260901014808 | 58 | 262 | 3.5 | 0.9 | 0.00 | 0.00 | 0.00 | 88 | 973.0 |
| 20260901014333 | 58 | 318 | 0.9 | 0.9 | 0.00 | 0.00 | 0.00 | 88 | 972.9 |
| 20260901013838 | 58 | 318 | 0.9 | 4.3 | 0.00 | 0.00 | 0.00 | 88 | 973.3 |
| 20260901013403 | 58 | 318 | 0.9 | 4.3 | 0.00 | 0.00 | 0.00 | 88 | 972.9 |
| 20260901012933 | 58 | 318 | 4.3 | 2.6 | 0.00 | 0.00 | 0.00 | 88 | 973.0 |
| 20260901012458 | 58 | 297 | 3.5 | 2.6 | 0.00 | 0.00 | 0.00 | 88 | 973.1 |
| 20260901012019 | 57 | 297 | 3.5 | 4.3 | 0.00 | 0.00 | 0.00 | 88 | 972.8 |
| 20260901011608 | 57 | 297 | 1.7 | 4.3 | 0.00 | 0.00 | 0.00 | 88 | 973.0 |
| 20260901011158 | 57 | 297 | 2.6 | 6.1 | 0.00 | 0.00 | 0.00 | 88 | 972.9 |
| 20260901010738 | 57 | 297 | 2.6 | 6.1 | 0.00 | 0.00 | 0.00 | 88 | 972.9 |
| 20260901010318 | 57 | 297 | 1.7 | 7.8 | 0.00 | 0.00 | 0.00 | 88 | 972.9 |
| 20260901005838 | 57 | 297 | 2.6 | 4.3 | 0.00 | 0.00 | 0.00 | 88 | 972.8 |
| 20260901005423 | 57 | 297 | 3.5 | 7.8 | 0.00 | 0.00 | 0.00 | 88 | 972.7 |
| 20260901005003 | 57 | 297 | 3.5 | 4.3 | 0.00 | 0.00 | 0.00 | 88 | 972.6 |
| 20260901004518 | 57 | 297 | 0.9 | 2.6 | 0.00 | 0.00 | 0.00 | 88 | 972.8 |
| 20260901004038 | 57 | 297 | 0.9 | 2.6 | 0.00 | 0.00 | 0.00 | 88 | 972.7 |
| 20260901003558 | 57 | 174 | 0.9 | 2.6 | 0.00 | 0.00 | 0.00 | 88 | 972.6 |
| 20260901003133 | 57 | 174 | 0.0 | 0.9 | 0.00 | 0.00 | 0.00 | 88 | 972.6 |
| 20260901002708 | 58 | 174 | 1.7 | 4.3 | 0.00 | 0.00 | 0.00 | 88 | 972.6 |
| 20260901002258 | 58 | 174 | 1.7 | 4.3 | 0.00 | 0.00 | 0.00 | 88 | 972.7 |
| 20260901001858 | 58 | 174 | 2.6 | 4.3 | 0.00 | 0.00 | 0.00 | 88 | 972.6 |
| 20260901001443 | 58 | 174 | 1.7 | 2.6 | 0.00 | 0.00 | 0.00 | 88 | 972.6 |
| 20260901001013 | 58 | 174 | 3.5 | 6.1 | 0.00 | 0.00 | 0.00 | 88 | 972.6 |
| 20260901000553 | 58 | 174 | 3.5 | 2.6 | 0.00 | 0.00 | 0.00 | 88 | 972.4 |
| 20260901000118 | 58 | 174 | 0.9 | 4.3 | 0.00 | 0.00 | 0.00 | 88 | 972.6 |
| 20260831235648 | 58 | 285 | 0.9 | 4.3 | 0.00 | 0.00 | 0.00 | 88 | 972.7 |
| 20260831235223 | 58 | 285 | 0.9 | 4.3 | 0.00 | 0.00 | 0.00 | 88 | 972.5 |
| 20260831234759 | 58 | 285 | 0.9 | 4.3 | 0.00 | 0.00 | 0.00 | 88 | 972.6 |
| 20260831234338 | 58 | 285 | 0.9 | 0.9 | 0.00 | 0.00 | 0.00 | 88 | 972.5 |
| 20260831233923 | 58 | 166 | 2.6 | 2.6 | 0.00 | 0.00 | 0.00 | 88 | 972.5 |
| 20260831233448 | 58 | 166 | 3.5 | 2.6 | 0.00 | 0.00 | 0.00 | 88 | 972.6 |
| 20260831232953 | 58 | 166 | 3.5 | 4.3 | 0.00 | 0.00 | 0.00 | 88 | 972.7 |
| 20260831232523 | 58 | 166 | 0.9 | 0.9 | 0.00 | 0.00 | 0.00 | 88 | 972.6 |
| 20260831232058 | 58 | 166 | 0.9 | 2.6 | 0.00 | 0.00 | 0.00 | 88 | 972.8 |
| 20260831231638 | 58 | 166 | 0.9 | 2.6 | 0.00 | 0.00 | 0.00 | 88 | 972.8 |
| 20260831231218 | 58 | 206 | 0.9 | 2.6 | 0.00 | 0.00 | 0.00 | 88 | 972.8 |
| 20260831230748 | 59 | 206 | 1.7 | 2.6 | 0.00 | 0.00 | 0.00 | 88 | 972.5 |
| 20260831230333 | 59 | 206 | 0.0 | 2.6 | 0.00 | 0.00 | 0.00 | 88 | 972.7 |
| 20260831225838 | 59 | 157 | 0.0 | 2.6 | 0.00 | 0.00 | 0.00 | 88 | 972.6 |
| 20260831225403 | 59 | 157 | 1.7 | 4.3 | 0.00 | 0.00 | 0.00 | 88 | 972.7 |
| 20260831224918 | 59 | 157 | 1.7 | 7.8 | 0.00 | 0.00 | 0.00 | 88 | 972.7 |
| 20260831224448 | 59 | 157 | 0.0 | 6.1 | 0.00 | 0.00 | 0.00 | 88 | 972.5 |
| 20260831224008 | 59 | 157 | 0.0 | 2.6 | 0.00 | 0.00 | 0.00 | 88 | 972.6 |
| 20260831223528 | 59 | 220 | 0.0 | 4.3 | 0.00 | 0.00 | 0.00 | 88 | 972.6 |
| 20260831223118 | 59 | 220 | 0.0 | 2.6 | 0.00 | 0.00 | 0.00 | 88 | 972.5 |
| 20260831222633 | 59 | 220 | 0.0 | 2.6 | 0.00 | 0.00 | 0.00 | 88 | 972.5 |
| 20260831222143 | 59 | 257 | 0.0 | 2.6 | 0.00 | 0.00 | 0.00 | 88 | 972.6 |
| 20260831221723 | 59 | 359 | 2.6 | 4.3 | 0.00 | 0.00 | 0.00 | 88 | 972.7 |
| 20260831221243 | 59 | 359 | 0.9 | 2.6 | 0.00 | 0.00 | 0.00 | 88 | 972.7 |
| 20260831220819 | 59 | 359 | 2.6 | 0.9 | 0.00 | 0.00 | 0.00 | 88 | 972.4 |
| 20260831220343 | 59 | 359 | 2.6 | 4.3 | 0.00 | 0.00 | 0.00 | 83 | 972.6 |
| 20260831215853 | 59 | 359 | 0.0 | 0.0 | 0.00 | 0.00 | 0.00 | 83 | 972.6 |
| 20260831215438 | 59 | 344 | 0.0 | 0.0 | 0.00 | 0.00 | 0.00 | 83 | 972.5 |
| 20260831214948 | 59 | 344 | 0.0 | 0.9 | 0.00 | 0.00 | 0.00 | 83 | 972.8 |
| 20260831214523 | 61 | 344 | 6.1 | 9.6 | 0.00 | 0.00 | 0.00 | 83 | 972.7 |
| 20260831214043 | 61 | 344 | 1.7 | 9.6 | 0.00 | 0.00 | 0.00 | 83 | 972.6 |
| 20260831213603 | 61 | 344 | 1.7 | 6.1 | 0.00 | 0.00 | 0.00 | 64 | 972.6 |
| 20260831213148 | 61 | 353 | 1.7 | 4.3 | 0.00 | 0.00 | 0.00 | 64 | 972.5 |
| 20260831212723 | 61 | 306 | 1.7 | 12.2 | 0.00 | 0.00 | 0.00 | 64 | 972.3 |
| 20260831212248 | 61 | 306 | 1.7 | 12.2 | 0.00 | 0.00 | 0.00 | 64 | 972.3 |
| 20260831211819 | 61 | 306 | 7.0 | 15.6 | 0.00 | 0.00 | 0.00 | 64 | 972.5 |
| 20260831211408 | 62 | 265 | 3.5 | 7.8 | 0.00 | 0.00 | 0.00 | 64 | 972.5 |
| 20260831210938 | 62 | 265 | 0.9 | 7.8 | 0.00 | 0.00 | 0.00 | 64 | 972.3 |
| 20260831210458 | 62 | 265 | 0.9 | 2.6 | 0.00 | 0.00 | 0.00 | 64 | 972.2 |
| 20260831210039 | 62 | 265 | 0.9 | 0.9 | 0.00 | 0.00 | 0.00 | 64 | 972.0 |
| 20260831205553 | 62 | 265 | 0.9 | 2.6 | 0.00 | 0.00 | 0.00 | 64 | 971.9 |
| 20260831205133 | 62 | 265 | 0.9 | 2.6 | 0.00 | 0.00 | 0.00 | 64 | 972.1 |
| 20260831204639 | 62 | 178 | 0.9 | 4.3 | 0.00 | 0.00 | 0.00 | 64 | 971.8 |
| 20260831204203 | 62 | 306 | 0.9 | 4.3 | 0.00 | 0.00 | 0.00 | 64 | 971.7 |
| 20260831203719 | 62 | 312 | 0.9 | 2.6 | 0.00 | 0.00 | 0.00 | 64 | 971.7 |
| 20260831203243 | 62 | 312 | 3.5 | 2.6 | 0.00 | 0.00 | 0.00 | 64 | 971.7 |
| 20260831202811 | 62 | 275 | 1.7 | 2.6 | 0.00 | 0.00 | 0.00 | 64 | 971.8 |
| 20260831202348 | 62 | 275 | 1.7 | 4.3 | 0.00 | 0.00 | 0.00 | 64 | 971.5 |
| 20260831201938 | 65 | 275 | 1.7 | 6.1 | 0.00 | 0.00 | 0.00 | 64 | 971.5 |
| 20260831201513 | 65 | 275 | 0.9 | 4.3 | 0.00 | 0.00 | 0.00 | 64 | 971.6 |
| 20260831201033 | 65 | 275 | 1.7 | 7.8 | 0.00 | 0.00 | 0.00 | 64 | 971.6 |
| 20260831200618 | 65 | 275 | 1.7 | 7.8 | 0.00 | 0.00 | 0.00 | 64 | 971.4 |
| 20260831200153 | 65 | 275 | 2.6 | 9.6 | 0.00 | 0.00 | 0.00 | 64 | 971.4 |
| 20260831195708 | 65 | 134 | 8.7 | 9.6 | 0.00 | 0.00 | 0.00 | 64 | 971.4 |
| 20260831195218 | 65 | 300 | 8.7 | 7.8 | 0.00 | 0.00 | 0.00 | 64 | 971.3 |
| 20260831194758 | 65 | 300 | 5.2 | 12.2 | 0.00 | 0.00 | 0.00 | 64 | 971.2 |
| 20260831194338 | 65 | 300 | 5.2 | 9.6 | 0.00 | 0.00 | 0.00 | 64 | 971.2 |
| 20260831193918 | 65 | 300 | 5.2 | 17.4 | 0.00 | 0.00 | 0.00 | 64 | 971.1 |
| 20260831193502 | 65 | 300 | 5.2 | 6.1 | 0.00 | 0.00 | 0.00 | 64 | 971.0 |
| 20260831193033 | 65 | 197 | 5.2 | 15.6 | 0.00 | 0.00 | 0.00 | 64 | 971.0 |
| 20260831192628 | 65 | 197 | 4.3 | 20.0 | 0.00 | 0.00 | 0.00 | 60 | 971.0 |
| 20260831192219 | 65 | 197 | 4.3 | 20.0 | 0.00 | 0.00 | 0.00 | 60 | 970.9 |
| 20260831191748 | 65 | 197 | 2.6 | 19.1 | 0.00 | 0.00 | 0.00 | 60 | 971.0 |
| 20260831191313 | 65 | 212 | 6.1 | 12.2 | 0.00 | 0.00 | 0.00 | 60 | 970.8 |
| 20260831190848 | 65 | 212 | 3.5 | 13.9 | 0.00 | 0.00 | 0.00 | 60 | 970.6 |
| 20260831190418 | 65 | 212 | 2.6 | 13.9 | 0.00 | 0.00 | 0.00 | 60 | 970.7 |
| 20260831185953 | 65 | 250 | 2.6 | 13.9 | 0.00 | 0.00 | 0.00 | 49 | 970.7 |
| 20260831185519 | 66 | 250 | 2.6 | 17.4 | 0.00 | 0.00 | 0.00 | 49 | 970.7 |
| 20260831185045 | 66 | 250 | 2.6 | 17.4 | 0.00 | 0.00 | 0.00 | 49 | 970.9 |
| 20260831184613 | 66 | 250 | 2.6 | 15.6 | 0.00 | 0.00 | 0.00 | 49 | 970.9 |
| 20260831184148 | 66 | 315 | 2.6 | 13.9 | 0.00 | 0.00 | 0.00 | 49 | 970.8 |
| 20260831183728 | 67 | 315 | 2.6 | 9.6 | 0.00 | 0.00 | 0.00 | 49 | 970.7 |
| 20260831183259 | 67 | 342 | 6.1 | 13.9 | 0.00 | 0.00 | 0.00 | 49 | 970.5 |
| 20260831182833 | 67 | 289 | 5.2 | 13.9 | 0.00 | 0.00 | 0.00 | 49 | 970.7 |
| 20260831182423 | 68 | 319 | 5.2 | 13.9 | 0.00 | 0.00 | 0.00 | 49 | 970.3 |
| 20260831181939 | 68 | 319 | 5.2 | 12.2 | 0.00 | 0.00 | 0.00 | 49 | 970.2 |
| 20260831181448 | 68 | 319 | 3.5 | 17.4 | 0.00 | 0.00 | 0.00 | 49 | 970.0 |
| 20260831181013 | 69 | 314 | 3.5 | 9.6 | 0.00 | 0.00 | 0.00 | 49 | 969.7 |
| 20260831180603 | 69 | 314 | 2.6 | 12.2 | 0.00 | 0.00 | 0.00 | 49 | 969.5 |
| 20260831180135 | 69 | 314 | 2.6 | 11.3 | 0.00 | 0.00 | 0.00 | 49 | 969.2 |
| 20260831175723 | 69 | 314 | 5.2 | 11.3 | 0.00 | 0.00 | 0.00 | 44 | 969.1 |
| 20260831175301 | 69 | 314 | 7.0 | 12.2 | 0.00 | 0.00 | 0.00 | 44 | 969.0 |
| 20260831174828 | 69 | 314 | 1.7 | 7.8 | 0.00 | 0.00 | 0.00 | 44 | 969.0 |
| 20260831174403 | 69 | 314 | 6.1 | 7.8 | 0.00 | 0.00 | 0.00 | 44 | 969.2 |
| 20260831173943 | 69 | 341 | 6.1 | 7.8 | 0.00 | 0.00 | 0.00 | 44 | 969.2 |
| 20260831173525 | 69 | 341 | 6.1 | 4.3 | 0.00 | 0.00 | 0.00 | 44 | 969.2 |
| 20260831173103 | 69 | 341 | 1.7 | 4.3 | 0.00 | 0.00 | 0.00 | 44 | 969.2 |
| 20260831172653 | 69 | 341 | 1.7 | 11.3 | 0.00 | 0.00 | 0.00 | 44 | 969.1 |
| 20260831172218 | 69 | 341 | 1.7 | 11.3 | 0.00 | 0.00 | 0.00 | 44 | 969.2 |
| 20260831171759 | 69 | 341 | 5.2 | 9.6 | 0.00 | 0.00 | 0.00 | 44 | 969.3 |
| 20260831171323 | 69 | 256 | 3.5 | 12.2 | 0.00 | 0.00 | 0.00 | 44 | 969.3 |
| 20260831170858 | 69 | 267 | 7.0 | 11.3 | 0.00 | 0.00 | 0.00 | 44 | 969.3 |
| 20260831170439 | 69 | 267 | 1.7 | 9.6 | 0.00 | 0.00 | 0.00 | 44 | 969.2 |
| 20260831165959 | 71 | 289 | 1.7 | 9.6 | 0.00 | 0.00 | 0.00 | 44 | 969.2 |
| 20260831165548 | 71 | 289 | 0.0 | 9.6 | 0.00 | 0.00 | 0.00 | 44 | 969.3 |
| 20260831165118 | 71 | 289 | 4.3 | 11.3 | 0.00 | 0.00 | 0.00 | 44 | 969.3 |
| 20260831164633 | 71 | 296 | 2.6 | 17.4 | 0.00 | 0.00 | 0.00 | 44 | 969.6 |
| 20260831164148 | 71 | 271 | 7.8 | 20.0 | 0.00 | 0.00 | 0.00 | 44 | 969.3 |
| 20260831163743 | 71 | 271 | 3.5 | 17.4 | 0.00 | 0.00 | 0.00 | 44 | 969.4 |
| 20260831163333 | 71 | 334 | 7.0 | 19.1 | 0.00 | 0.00 | 0.00 | 44 | 969.4 |
| 20260831162859 | 71 | 334 | 7.0 | 12.2 | 0.00 | 0.00 | 0.00 | 44 | 969.4 |
| 20260831162413 | 72 | 301 | 3.5 | 17.4 | 0.00 | 0.00 | 0.00 | 44 | 969.3 |
| 20260831161933 | 72 | 151 | 3.5 | 15.6 | 0.00 | 0.00 | 0.00 | 44 | 969.0 |
| 20260831161503 | 72 | 138 | 7.8 | 9.6 | 0.00 | 0.00 | 0.00 | 42 | 969.2 |
| 20260831161053 | 73 | 138 | 7.8 | 9.6 | 0.00 | 0.00 | 0.00 | 42 | 969.2 |
| 20260831160638 | 73 | 253 | 9.6 | 20.0 | 0.00 | 0.00 | 0.00 | 41 | 969.2 |
| 20260831160158 | 73 | 253 | 2.6 | 6.1 | 0.00 | 0.00 | 0.00 | 41 | 969.3 |
| 20260831155719 | 72 | 333 | 0.0 | 7.8 | 0.00 | 0.00 | 0.00 | 100 | 969.4 |
| 20260831155248 | 71 | 329 | 7.0 | 20.0 | 0.00 | 0.00 | 0.00 | 42 | 969.2 |
| 20260831154758 | 71 | 323 | 7.0 | 9.6 | 0.00 | 0.00 | 0.00 | 42 | 969.2 |
| 20260831154339 | 71 | 264 | 4.3 | 15.6 | 0.00 | 0.00 | 0.00 | 42 | 969.0 |
| 20260831153933 | 71 | 99 | 3.5 | 17.4 | 0.00 | 0.00 | 0.00 | 42 | 969.0 |
| 20260831153438 | 72 | 267 | 10.4 | 21.7 | 0.00 | 0.00 | 0.00 | 44 | 969.1 |
| 20260831152958 | 72 | 267 | 10.4 | 31.3 | 0.00 | 0.00 | 0.00 | 44 | 969.0 |
| 20260831152513 | 73 | 197 | 5.2 | 17.4 | 0.00 | 0.00 | 0.00 | 44 | 969.2 |
| 20260831152048 | 72 | 308 | 5.2 | 29.5 | 0.00 | 0.00 | 0.00 | 44 | 969.3 |
| 20260831151613 | 72 | 125 | 5.2 | 11.3 | 0.00 | 0.00 | 0.00 | 44 | 969.1 |
| 20260831151143 | 72 | 125 | 2.6 | 11.3 | 0.00 | 0.00 | 0.00 | 44 | 968.9 |
| 20260831150713 | 72 | 277 | 5.2 | 6.1 | 0.00 | 0.00 | 0.00 | 44 | 969.2 |
| 20260831150238 | 73 | 277 | 10.4 | 19.1 | 0.00 | 0.00 | 0.00 | 44 | 969.1 |
| 20260831145758 | 73 | 114 | 10.4 | 19.1 | 0.00 | 0.00 | 0.00 | 44 | 969.2 |
| 20260831145328 | 73 | 114 | 8.7 | 12.2 | 0.00 | 0.00 | 0.00 | 46 | 969.2 |
| 20260831144923 | 73 | 114 | 10.4 | 13.9 | 0.00 | 0.00 | 0.00 | 46 | 969.3 |
| 20260831144458 | 73 | 114 | 8.7 | 13.9 | 0.00 | 0.00 | 0.00 | 47 | 969.1 |
| 20260831144043 | 73 | 328 | 2.6 | 13.9 | 0.00 | 0.00 | 0.00 | 47 | 969.2 |
| 20260831143603 | 72 | 316 | 6.1 | 17.4 | 0.00 | 0.00 | 0.00 | 47 | 969.2 |
| 20260831143143 | 72 | 350 | 6.1 | 19.1 | 0.00 | 0.00 | 0.00 | 48 | 969.2 |
| 20260831142713 | 72 | 269 | 3.5 | 20.0 | 0.00 | 0.00 | 0.00 | 48 | 969.0 |
| 20260831142228 | 72 | 157 | 3.5 | 12.2 | 0.00 | 0.00 | 0.00 | 48 | 969.4 |
| 20260831141753 | 72 | 271 | 10.4 | 12.2 | 0.00 | 0.00 | 0.00 | 48 | 969.2 |
| 20260831141328 | 72 | 298 | 3.5 | 12.2 | 0.00 | 0.00 | 0.00 | 48 | 969.2 |
| 20260831140903 | 72 | 239 | 8.7 | 21.7 | 0.00 | 0.00 | 0.00 | 48 | 968.9 |
| 20260831140438 | 71 | 126 | 7.0 | 12.2 | 0.00 | 0.00 | 0.00 | 48 | 969.1 |
| 20260831140028 | 71 | 126 | 7.0 | 13.9 | 0.00 | 0.00 | 0.00 | 48 | 969.2 |
| 20260831135603 | 72 | 206 | 7.0 | 25.2 | 0.00 | 0.00 | 0.00 | 48 | 968.9 |
| 20260831135138 | 72 | 320 | 3.5 | 21.7 | 0.00 | 0.00 | 0.00 | 48 | 969.3 |
| 20260831134708 | 73 | 281 | 5.2 | 9.6 | 0.00 | 0.00 | 0.00 | 48 | 969.2 |
| 20260831134233 | 72 | 114 | 3.5 | 9.6 | 0.00 | 0.00 | 0.00 | 48 | 969.4 |
| 20260831133823 | 72 | 114 | 5.2 | 13.9 | 0.00 | 0.00 | 0.00 | 52 | 969.4 |
| 20260831133343 | 72 | 114 | 4.3 | 19.1 | 0.00 | 0.00 | 0.00 | 52 | 969.1 |
| 20260831132938 | 72 | 152 | 3.5 | 15.6 | 0.00 | 0.00 | 0.00 | 52 | 969.2 |
| 20260831132503 | 70 | 259 | 4.3 | 19.1 | 0.00 | 0.00 | 0.00 | 51 | 969.4 |
| 20260831132058 | 70 | 259 | 2.6 | 9.6 | 0.00 | 0.00 | 0.00 | 51 | 969.4 |
| 20260831131619 | 70 | 276 | 7.8 | 12.2 | 0.00 | 0.00 | 0.00 | 51 | 969.5 |
| 20260831131213 | 71 | 315 | 7.8 | 17.4 | 0.00 | 0.00 | 0.00 | 51 | 969.5 |
| 20260831130723 | 71 | 352 | 4.3 | 17.4 | 0.00 | 0.00 | 0.00 | 51 | 969.6 |
| 20260831130253 | 71 | 129 | 7.8 | 19.1 | 0.00 | 0.00 | 0.00 | 51 | 969.5 |
| 20260831125828 | 71 | 228 | 12.2 | 15.6 | 0.00 | 0.00 | 0.00 | 51 | 969.6 |